[[{"header":{"parameterUnit":"m.s-1","parameterCategory":1,"la1":30.2991,"la2":30.254,"lo1":-89.0895,"lo2":-89.0444,"dy":0.0017,"dx":0.0017,"nx":28,"ny":28,"refTime":"2025-01-27T09:00:00:Z","depth":0,"parameterNumber":2,"parameterNumberName":"U-component_of_WINDS"},"data":[0,0,0,0,0,0,0,0,0,0,0,0,0,0,0,0,0,0,0,0,0,0,0,0,0,0,0,0,0,0,0,0,0,0,0,0,0,0,0,0,0,0,0,0,0,0,0,0,0,0,0,0,0,0,0,0,0,0,-2.1433,-2.1434,0,-2.15,-2.1501,-2.1502,-2.1478,-2.1476,-2.1475,-2.1473,-2.1543,-2.1546,-2.1549,0,0,0,0,0,0,0,0,0,0,0,0,0,-2.1285,-2.1288,-2.1433,-2.1434,-2.1435,-2.15,-2.1501,-2.1502,-2.1478,-2.1476,-2.1474,-2.1473,-2.1542,-2.1545,-2.1549,0,0,0,0,0,0,0,0,0,0,0,0,0,-2.1351,-2.1289,-2.1433,-2.1431,-2.1431,-2.15,-2.1501,-2.1502,-2.1478,-2.1476,-2.1474,-2.1472,-2.154,-2.1545,-2.155,-2.1625,0,0,-2.1565,-2.1567,0,0,0,0,0,0,0,0,-2.1347,-2.1356,-2.143,-2.1431,-2.1432,-2.1478,-2.1474,-2.1543,-2.1479,-2.146,-2.1473,-2.1471,-2.1523,-2.1529,-2.1547,-2.1628,-2.1631,-2.1565,-2.1568,-2.157,-2.1572,0,0,0,0,0,0,0,-2.1342,-2.1353,-2.146,-2.1431,-2.1432,-2.1427,-2.1433,-2.1487,-2.1504,-2.1462,-2.146,-2.1468,-2.1523,-2.1542,-2.1548,-2.1632,-2.1565,-2.1569,-2.1572,-2.1574,-2.1778,-2.1781,0,0,0,0,0,0,-2.1337,-2.1349,-2.1458,-2.1462,-2.1383,-2.1431,-2.1439,-2.1466,-2.1503,-2.1506,-2.147,-2.1467,-2.1535,-2.1543,-2.1551,-2.1641,-2.157,-2.1575,-2.1577,-2.1776,-2.1779,-2.1782,0,0,0,0,0,0,-2.1334,-2.1347,-2.1455,-2.1405,-2.1418,-2.1436,-2.1466,-2.1468,-2.1487,-2.1509,-2.1512,-2.1487,-2.1533,-2.1544,-2.1606,-2.1643,-2.1577,-2.1581,-2.1773,-2.1777,-2.178,-2.1821,0,0,0,0,0,0,-2.133,-2.1346,-2.1375,-2.1406,-2.1421,-2.151,-2.1469,-2.1471,-2.1495,-2.1492,-2.1525,-2.1529,-2.1532,-2.1599,-2.1611,-2.1648,-2.1585,-2.177,-2.1775,-2.1779,-2.1817,-2.1826,-2.1834,0,0,0,0,0,-2.1325,-2.1384,-2.1377,-2.139,-2.1457,-2.1512,-2.152,-2.1523,-2.1498,-2.1527,-2.1542,-2.1528,-2.1637,-2.1606,-2.1619,-2.1658,-2.1768,-2.1773,-2.1779,-2.1813,-2.1824,-2.1834,0,0,0,0,0,0,-2.1357,-2.1388,-2.138,-2.1451,-2.1479,-2.1508,-2.1544,-2.1535,-2.1571,-2.1566,-2.1568,-2.1576,-2.164,-2.1656,-2.162,-2.1733,-2.1699,-2.1707,-2.172,-2.1731,-2.1739,-2.1734,-2.1589,0,0,0,0,0,-2.1372,-2.1414,-2.1439,-2.1499,-2.1513,-2.1526,-2.155,-2.155,-2.1579,-2.1591,-2.161,-2.1639,-2.1679,-2.1706,-2.1745,-2.1819,-2.1826,-2.1853,-2.1861,-2.1868,-2.1875,-2.1915,-2.1927,-2.18,-2.18,-2.18,0,0,-2.1405,-2.1427,-2.1453,-2.1506,-2.1528,-2.157,-2.1537,-2.1584,-2.1615,-2.1598,-2.1658,-2.1673,-2.1706,-2.1774,-2.1806,-2.1789,-2.1912,-2.1875,-2.1881,-2.1884,-2.1922,-2.1934,-2.1945,-2.1804,-2.1803,-2.1803,0,0,-2.1485,-2.1506,-2.1558,-2.158,-2.1613,-2.1621,-2.1634,-2.1664,-2.1673,-2.1734,-2.1722,-2.176,-2.183,-2.1854,-2.1875,-2.1964,-2.1953,-2.1977,-2.2021,-2.206,-2.207,-2.2079,-2.211,-2.2122,-2.1984,-2.1984,-2.1984,0,-2.152,-2.1584,-2.1586,-2.1634,-2.1658,-2.1644,-2.1696,-2.1718,-2.1762,-2.1779,-2.176,-2.1848,-2.1869,-2.1943,-2.1964,-2.1982,-2.1996,-2.1973,-2.2069,-2.2078,-2.2086,-2.2116,-2.2128,-2.1987,-2.1986,-2.1986,-2.1986,0,-2.1626,-2.1671,-2.1709,-2.1752,-2.178,-2.183,-2.1839,-2.1868,-2.1865,-2.1875,-2.1937,-2.1962,-2.2005,-2.2023,-2.2021,-2.2097,-2.2085,-2.2068,-2.2033,-2.2101,-2.2129,-2.214,-2.1991,-2.199,-2.1989,-2.1988,0,0,-2.1728,-2.1771,-2.1785,-2.1804,-2.1839,-2.1874,-2.1924,-2.1966,-2.199,-2.2021,-2.2062,-2.2122,-2.2106,-2.213,-2.2131,-2.2165,-2.2234,-2.2143,-2.2144,-2.2158,-2.2318,-2.2331,-2.2344,-2.2227,-2.2229,-2.2231,-2.2315,0,-2.1811,-2.1897,-2.19,-2.1979,-2.202,-2.2008,-2.2051,-2.2078,-2.2089,-2.2126,-2.2138,-2.218,-2.2156,-2.217,-2.2204,-2.2218,-2.2266,-2.2212,-2.2265,-2.2267,-2.2256,-2.2359,-2.2372,-2.2451,-2.2326,-2.2328,-2.2329,0,-2.1918,-2.1952,-2.2036,-2.2065,-2.2082,-2.2121,-2.2159,-2.2195,-2.2225,-2.223,-2.2257,-2.2253,-2.2304,-2.2268,-2.2338,-2.2302,-2.2324,-2.2334,-2.2337,-2.2342,-2.2302,-2.2365,-2.2476,-2.2487,-2.2347,-2.2346,-2.2344,0,-2.1984,-2.205,-2.2108,-2.2125,-2.2161,-2.2188,-2.2205,-2.2232,-2.2257,-2.2291,-2.2308,-2.2347,-2.2369,-2.24,-2.2407,-2.238,-2.2477,-2.2442,-2.2483,-2.2482,-2.2503,-2.2501,-2.2618,-2.2518,-2.2518,-2.2518,-2.2518,0,-2.2075,-2.2126,-2.2138,-2.2174,-2.2231,-2.2234,-2.229,-2.2305,-2.233,-2.2368,-2.236,-2.2396,-2.2403,-2.2441,-2.2446,-2.2503,-2.2513,-2.2519,-2.252,-2.2519,-2.2519,-2.2533,-2.2528,-2.2521,-2.252,-2.252,-2.2519,0,-2.2157,-2.2167,-2.223,-2.2258,-2.2267,-2.2307,-2.2332,-2.2366,-2.2377,-2.2425,-2.2437,-2.2453,-2.2498,-2.2507,-2.256,-2.2563,-2.2631,-2.2627,-2.262,-2.262,-2.266,-2.2656,-2.2789,-2.2807,-2.2696,-2.2698,-2.2698,0,-2.2214,-2.2253,-2.2286,-2.2311,-2.2328,-2.2369,-2.2394,-2.2399,-2.2426,-2.2463,-2.2493,-2.2536,-2.257,-2.2642,-2.2658,-2.2698,-2.2695,-2.2739,-2.2701,-2.2699,-2.2694,-2.2692,-2.2695,-2.2746,-2.2747,-2.2748,-2.2749,0,-2.2314,-2.2317,-2.2354,-2.2393,-2.2423,-2.2454,-2.2483,-2.2504,-2.2513,-2.2544,-2.2588,-2.2615,-2.2669,-2.2711,-2.2752,-2.2769,-2.276,-2.2761,-2.2772,-2.2772,-2.2766,-2.2769,-2.2639,-2.2757,-2.2756,-2.2756,-2.2755,-2.2755,-2.2385,-2.2419,-2.2447,-2.2488,-2.2511,-2.2538,-2.2572,-2.2586,-2.2624,-2.2667,-2.2668,-2.2717,-2.2746,-2.2799,-2.2818,-2.2857,-2.2843,-2.286,-2.2864,-2.2867,-2.2871,-2.2761,-2.2864,-2.2864,-2.2864,-2.2863,-2.2863,0,-2.2484,-2.2502,-2.254,-2.2581,-2.2613,-2.2602,-2.2634,-2.2662,-2.2705,-2.2732,-2.2766,-2.2818,-2.2859,-2.2879,-2.2921,-2.2947,-2.2945,-2.2958,-2.2956,-2.296,-2.2881,-2.2867,-2.296,-2.296,-2.296,-2.296,-2.2959,-2.2959,-2.254,-2.2596,-2.2603,-2.267,-2.2688,-2.2735,-2.2754,-2.2779,-2.2801,-2.2859,-2.2893,-2.2906,-2.293,-2.2973,-2.3011,-2.3016,-2.3031,-2.3046,-2.3049,-2.2975,-2.2965,-2.2956,-2.2942,-2.305,-2.305,-2.3124,-2.3125,-2.3125]},{"header":{"parameterUnit":"m.s-1","parameterCategory":1,"la1":30.2991,"la2":30.254,"lo1":-89.0895,"lo2":-89.0444,"dy":0.0017,"dx":0.0017,"nx":28,"ny":28,"refTime":"2025-01-27T09:00:00:Z","depth":0,"parameterNumber":3,"parameterNumberName":"V-component_of_WINDS"},"data":[0,0,0,0,0,0,0,0,0,0,0,0,0,0,0,0,0,0,0,0,0,0,0,0,0,0,0,0,0,0,0,0,0,0,0,0,0,0,0,0,0,0,0,0,0,0,0,0,0,0,0,0,0,0,0,0,0,0,1.2054,1.2055,0,1.2093,1.2093,1.2093,1.2103,1.2102,1.2102,1.2102,1.2141,1.2143,1.2144,0,0,0,0,0,0,0,0,0,0,0,0,0,1.1991,1.1992,1.2054,1.2055,1.2055,1.2093,1.2093,1.2094,1.2103,1.2102,1.2102,1.2102,1.2141,1.2142,1.2144,0,0,0,0,0,0,0,0,0,0,0,0,0,1.2023,1.1992,1.2054,1.2064,1.2066,1.2092,1.2093,1.2094,1.2103,1.2102,1.2102,1.2102,1.214,1.2142,1.2144,1.2164,0,0,1.215,1.2151,0,0,0,0,0,0,0,0,1.2021,1.2025,1.2062,1.2064,1.2065,1.2092,1.2085,1.2117,1.2103,1.2089,1.2102,1.2101,1.2125,1.2128,1.2137,1.2166,1.2167,1.215,1.2151,1.2152,1.2153,0,0,0,0,0,0,0,1.2019,1.2024,1.2069,1.2063,1.2065,1.2068,1.2072,1.2091,1.2109,1.209,1.2091,1.2095,1.2126,1.2135,1.2138,1.2168,1.215,1.2152,1.2153,1.2154,1.2218,1.2218,0,0,0,0,0,0,1.2015,1.2022,1.2068,1.2071,1.2042,1.2069,1.2074,1.2084,1.2108,1.2112,1.2095,1.2095,1.2132,1.2135,1.2139,1.2165,1.2152,1.2154,1.2155,1.2217,1.2218,1.2218,0,0,0,0,0,0,1.2013,1.2019,1.2067,1.2046,1.2053,1.207,1.2082,1.2085,1.2094,1.2113,1.2116,1.2101,1.2131,1.2136,1.2158,1.2167,1.2155,1.2157,1.2217,1.2217,1.2218,1.2217,0,0,0,0,0,0,1.2011,1.2018,1.2025,1.2046,1.2054,1.2085,1.2083,1.2086,1.2097,1.2097,1.2119,1.2122,1.2131,1.2155,1.216,1.2169,1.2158,1.2216,1.2217,1.2218,1.2216,1.2218,1.2219,0,0,0,0,0,1.2009,1.2023,1.2026,1.2031,1.2063,1.2085,1.2089,1.21,1.2097,1.2105,1.2118,1.2121,1.2165,1.2157,1.2163,1.2173,1.2215,1.2217,1.2218,1.2216,1.2217,1.2219,0,0,0,0,0,0,1.2002,1.2026,1.2029,1.205,1.2066,1.2087,1.2097,1.2101,1.2118,1.2117,1.213,1.2135,1.2156,1.2167,1.2158,1.2194,1.219,1.2193,1.2187,1.2188,1.219,1.2187,1.216,0,0,0,0,0,1.2003,1.2018,1.2039,1.2055,1.2063,1.2079,1.2089,1.2096,1.2112,1.2119,1.2133,1.2149,1.2167,1.2178,1.2195,1.2218,1.2224,1.2228,1.2229,1.223,1.2232,1.2247,1.2249,1.2222,1.2222,1.2222,0,0,1.2005,1.202,1.2029,1.2054,1.2067,1.2084,1.2084,1.2101,1.2114,1.2121,1.2143,1.2154,1.2174,1.2197,1.2207,1.2206,1.2241,1.2231,1.2232,1.2233,1.2248,1.2251,1.2253,1.2223,1.2223,1.2223,0,0,1.2017,1.2029,1.2046,1.2059,1.2079,1.2089,1.2093,1.2114,1.2122,1.2144,1.2151,1.2166,1.2196,1.221,1.2221,1.2241,1.2245,1.2246,1.2252,1.2267,1.2269,1.2271,1.228,1.2282,1.2248,1.2248,1.2248,0,1.2017,1.2042,1.2053,1.2071,1.2083,1.2091,1.2108,1.212,1.2145,1.2153,1.2151,1.219,1.2203,1.223,1.2235,1.2243,1.225,1.2244,1.2268,1.227,1.2272,1.228,1.2283,1.2248,1.2248,1.2248,1.2248,0,1.2042,1.2059,1.207,1.2094,1.2107,1.2124,1.2139,1.2151,1.2158,1.2169,1.2192,1.2209,1.223,1.2237,1.2243,1.2266,1.2265,1.2265,1.2261,1.2274,1.2283,1.2286,1.2248,1.2248,1.2248,1.2248,0,0,1.205,1.2081,1.2085,1.2097,1.212,1.2134,1.2153,1.2174,1.2185,1.2202,1.2218,1.2244,1.2245,1.2258,1.2266,1.2278,1.2295,1.2277,1.2278,1.2281,1.2324,1.2324,1.2327,1.2298,1.2299,1.2299,1.2322,0,1.2066,1.2099,1.211,1.2138,1.2155,1.2164,1.218,1.2197,1.2208,1.2225,1.2238,1.2257,1.2256,1.2264,1.2276,1.229,1.2304,1.2289,1.2315,1.2316,1.2311,1.2331,1.2332,1.2353,1.2326,1.2326,1.2326,0,1.2089,1.2107,1.2136,1.2159,1.2167,1.2181,1.2203,1.2219,1.2238,1.2246,1.2261,1.2269,1.229,1.2284,1.2314,1.2304,1.2315,1.2324,1.2325,1.2328,1.2322,1.2337,1.2359,1.2363,1.2331,1.2331,1.2331,0,1.2093,1.2125,1.2147,1.2157,1.2184,1.2194,1.2206,1.2225,1.2238,1.2257,1.2266,1.2287,1.2299,1.2316,1.233,1.2324,1.2359,1.2354,1.2367,1.2367,1.2374,1.2374,1.24,1.238,1.238,1.238,1.2379,0,1.211,1.2128,1.215,1.2163,1.2185,1.2198,1.2219,1.2232,1.2249,1.2266,1.2275,1.2291,1.2308,1.2326,1.2337,1.2361,1.2366,1.2374,1.2377,1.2374,1.2373,1.2382,1.2381,1.238,1.238,1.238,1.238,0,1.2119,1.2134,1.2159,1.2183,1.219,1.2204,1.2225,1.224,1.2252,1.2274,1.228,1.2299,1.2322,1.2337,1.2366,1.2373,1.24,1.2402,1.2394,1.2395,1.2407,1.2407,1.2442,1.2448,1.2422,1.2422,1.2422,0,1.2129,1.2143,1.2169,1.2182,1.2194,1.2213,1.2227,1.2242,1.2256,1.2281,1.2292,1.2316,1.2335,1.2371,1.2388,1.2411,1.2414,1.2425,1.2418,1.2415,1.2416,1.2416,1.2418,1.2426,1.2426,1.2427,1.2427,0,1.2146,1.2153,1.2172,1.2195,1.2211,1.2229,1.2248,1.2257,1.2276,1.2291,1.2315,1.233,1.236,1.2384,1.2409,1.2422,1.2428,1.2429,1.2433,1.2431,1.2426,1.2431,1.2398,1.2428,1.2428,1.2428,1.2428,1.2428,1.2157,1.217,1.2192,1.2213,1.2229,1.2247,1.2262,1.2277,1.2297,1.2323,1.2331,1.2356,1.2377,1.2411,1.2425,1.2445,1.2444,1.245,1.2452,1.2453,1.2454,1.2422,1.245,1.245,1.245,1.245,1.245,0,1.2175,1.219,1.221,1.2236,1.2254,1.2258,1.2279,1.2294,1.2316,1.2335,1.2355,1.2383,1.2407,1.2427,1.2451,1.2464,1.2468,1.247,1.247,1.2473,1.2453,1.2447,1.2467,1.2467,1.2467,1.2467,1.2467,1.2467,1.2187,1.2212,1.2222,1.2255,1.227,1.2294,1.2306,1.2323,1.2339,1.2371,1.239,1.2403,1.2424,1.245,1.2473,1.2478,1.2488,1.249,1.2496,1.2476,1.2474,1.2473,1.2468,1.2491,1.2491,1.2515,1.2515,1.2515]}]]